• Join FlightAware (Why Join?)
  • Login
  • US Flag GB Flag 
13:48 EST


 

Airport Tracker/Info


-or-


 

Live Flight TrackerFlight Track Log ✈ N328AJ ✈ 08-Oct-2013 ✈ KDET - KCMH

Flight Track Log - Related Links

Times and Time Zones

All times are in EDT time to prevent confusion due to time zone crossing. See the N328AJ flight status page for this flight to view local times or setup timezone preferences in your user account.

Time Position Orientation Groundspeed Altitude Reporting Facility
EDT Latitude Longitude Course Direction KTS MPH feet Rate Location/Type
18:01 42.3917 -82.9919 150° Southeast 171 197 1,300  Level Cleveland Center
18:02 42.3444 -82.9544 150° Southeast 212 244 2,800 1,260 Climbing Cleveland Center
18:03 42.3333 -82.9431 143° Southeast 199 229 3,000 1,320 Climbing Cleveland Center
18:03 42.2989 -82.9175 151° Southeast 220 253 3,900 960 Climbing Cleveland Center
18:04 42.2789 -82.9017 150° Southeast 215 247 4,000 60 Climbing Cleveland Center
18:04 42.2414 -82.8731 151° Southeast 260 299 4,000  Level Cleveland Center
18:05 42.2167 -82.8547 151° Southeast 245 282 4,000  Level Cleveland Center
18:06 42.1572 -82.8786 197° South 270 311 4,000  Level Cleveland Center
18:06 42.1492 -82.8836 205° Southwest 264 304 4,000 60 Level Cleveland Center
18:06 42.1031 -82.9306 217° Southwest 266 306 4,100 240 Climbing Cleveland Center
18:07 42.0892 -82.9408 209° Southwest 262 302 4,300 840 Climbing Cleveland Center
18:08 42.0467 -82.9850 218° Southwest 251 289 5,000 660 Climbing Cleveland Center
18:08 42.0192 -83.0067 210° Southwest 258 297 5,000  Level Cleveland Center
18:09 41.9836 -83.0439 218° Southwest 273 314 5,000  Level Cleveland Center
18:09 41.9586 -83.0656 213° Southwest 263 303 5,000 1,020 Level Cleveland Center
18:10 41.9158 -83.1075 216° Southwest 246 283 6,200 1,680 Climbing Cleveland Center
18:10 41.8983 -83.1225 213° Southwest 266 306 6,800 1,860 Climbing Cleveland Center
18:11 41.8478 -83.1708 215° Southwest 236 272 8,900 1,500 Climbing Cleveland Center
18:12 41.7961 -83.2194 215° Southwest 226 260 10,000 480 Climbing Cleveland Center
18:13 41.7247 -83.2567 201° Southwest 270 311 10,000  Level Cleveland Center
18:14 41.6314 -83.2544 179° South 280 322 10,000  Level Cleveland Center
18:15 41.5522 -83.2528 179° South 284 327 10,000  Level Cleveland Center
18:16 41.4728 -83.2514 179° South 285 328 10,000  Level Cleveland Center
18:17 41.3933 -83.2497 179° South 287 330 10,000  Level Cleveland Center
18:18 41.3139 -83.2481 179° South 285 328 10,000  Level Cleveland Center
18:19 41.2350 -83.2464 179° South 286 329 10,000  Level Cleveland Center
18:20 41.1386 -83.2447 179° South 287 330 10,000  Level Cleveland Center
18:21 41.0669 -83.2444 180° South 286 329 10,000  Level Cleveland Center
18:22 40.9875 -83.2414 178° South 285 328 10,000  Level Cleveland Center
18:23 40.8914 -83.2400 179° South 287 330 10,000  Level Cleveland Center
18:24 40.8436 -83.2408 181° South 286 329 10,000  Level Indianapolis Center
18:25 40.7647 -83.2386 179° South 287 330 10,000  Level Indianapolis Center
18:26 40.6847 -83.2383 180° South 288 331 10,000  Level Indianapolis Center
18:27 40.5886 -83.2356 179° South 287 330 10,000  Level Indianapolis Center
18:28 40.5089 -83.2353 180° South 286 329 10,000  Level Indianapolis Center
18:29 40.4775 -83.2342 178° South 285 328 10,000 -300 Level Indianapolis Center
18:29 40.4306 -83.2342 180° South 282 325 9,700 -600 Descending Indianapolis Center
18:30 40.4061 -83.2333 179° South 284 327 9,500 -1,080 Descending Indianapolis Center
18:30 40.3497 -83.2264 175° South 288 331 8,600 -1,320 Descending Indianapolis Center
18:31 40.3258 -83.2144 159° South 287 330 8,200 -1,380 Descending Indianapolis Center
18:31 40.2750 -83.1869 158° South 286 329 7,200 -1,560 Descending Indianapolis Center
18:31 40.2581 -83.1786 159° South 289 333 6,800 -1,560 Descending Indianapolis Center
18:32 40.2028 -83.1497 158° South 283 326 5,600 -1,320 Descending Indianapolis Center
18:34 40.1286 -83.1025 154° Southeast 230 265 4,200 -900 Descending Indianapolis Center
18:35 40.0778 -83.0636 150° Southeast 236 272 3,800 -600 Descending Indianapolis Center
18:36 40.0264 -83.0300 153° Southeast 219 252 3,100 -780 Descending Indianapolis Center
18:37 39.9978 -82.9925 135° Southeast 184 212 2,200 -840 Descending Indianapolis Center
18:38 39.9953 -82.9422 94° East 154 177 1,400 -540 Descending Indianapolis Center
18:39 39.9908 -82.8858 96° East 147 169 1,100 -300 Descending Indianapolis Center